Location: Saluda
(35.2377°N, 82.3468°W)
Time: 11:56:44
(UTC+00:00)

Vanguard 1 Rocket - All Passes

Search period start: 05 October 2022 00:00
Search period end: 15 October 2022 00:00
Orbit: 650 x 4225 km, 34.3° (Epoch: 04 October)

Date Brightness Start Highest point End Pass type
(mag) Time Alt. Az. Time Alt. Az. Time Alt. Az.
05 Oct - 00:18:38 10° WSW 00:42:23 70° SSE 00:55:22 10° E visible
05 Oct - 02:53:12 10° W 03:11:30 86° S 03:20:21 10° E visible
05 Oct - 05:26:47 10° W 05:38:04 57° SSW 05:44:05 10° SE visible
05 Oct - 08:00:46 10° WSW 08:01:36 10° SW 08:02:23 10° SW night (unlit)
05 Oct - 20:37:42 10° S 20:57:27 28° SE 21:13:55 10° E daylight
05 Oct - 23:03:33 10° SW 23:28:17 59° SSE 23:43:40 10° E visible
06 Oct - 01:36:43 10° WSW 01:58:29 84° S 02:09:26 10° E visible
06 Oct - 04:11:35 10° W 04:26:30 77° SSW 04:33:50 10° ESE visible
06 Oct - 06:44:07 10° W 06:51:15 26° SW 06:55:56 10° SSE night (unlit)
06 Oct - 19:29:11 10° SSE 19:43:20 18° SE 19:56:38 10° E daylight
06 Oct - 21:49:48 10° SSW 22:13:50 47° SSE 22:31:12 10° E daylight
07 Oct - 00:20:26 10° WSW 00:44:48 77° SSE 00:58:11 10° E visible
07 Oct - 02:55:31 10° W 03:14:11 86° S 03:23:13 10° E visible
07 Oct - 05:29:17 10° W 05:40:31 48° SSW 05:46:38 10° SE visible
07 Oct - 20:37:40 10° SSW 20:59:21 35° SE 21:17:33 10° E daylight
07 Oct - 23:05:00 10° SW 23:30:31 67° SSE 23:46:28 10° E visible
08 Oct - 01:38:55 10° W 02:01:06 86° S 02:12:18 10° E visible
08 Oct - 04:13:57 10° W 04:29:06 69° SSW 04:36:36 10° ESE visible
08 Oct - 06:47:17 10° W 06:53:24 20° SW 06:57:44 10° S night (unlit)
08 Oct - 19:27:39 10° S 19:45:09 24° SE 20:01:45 10° E daylight
08 Oct - 21:50:51 10° SW 22:15:51 55° SSE 22:34:06 10° ENE daylight
09 Oct - 00:22:25 10° WSW 00:47:16 82° SSE 01:00:59 10° E visible
09 Oct - 02:57:50 10° W 03:16:50 82° S 03:26:04 10° ESE visible
09 Oct - 05:31:50 10° W 05:42:50 39° SW 05:49:02 10° SSE visible
09 Oct - 18:22:28 10° SSE 18:31:25 13° SE 18:40:28 10° ESE daylight
09 Oct - 20:38:11 10° SSW 21:01:10 43° SE 21:20:45 10° E daylight
09 Oct - 23:06:42 10° WSW 23:32:46 73° SSE 23:49:14 10° E visible
10 Oct - 01:41:11 10° W 02:03:42 87° S 02:15:08 10° E visible
10 Oct - 04:16:17 10° WNW 04:31:35 61° SSW 04:39:16 10° SE visible
10 Oct - 06:51:05 10° W 06:55:26 14° SW 06:58:51 10° SSW night (unlit)
10 Oct - 19:27:19 10° S 19:46:50 30° SE 20:05:46 10° E daylight
10 Oct - 21:52:13 10° SW 22:17:51 63° SSE 22:36:53 10° ENE daylight
11 Oct - 00:24:33 10° WSW 00:49:45 85° S 01:03:47 10° E visible
11 Oct - 03:00:08 10° W 03:19:25 77° SSW 03:28:52 10° ESE visible
11 Oct - 05:34:32 10° W 05:45:00 31° SW 05:51:12 10° SSE visible
11 Oct - 18:19:12 10° SSE 18:33:05 19° SE 18:47:36 10° E daylight
11 Oct - 20:39:09 10° SSW 21:02:57 50° SE 21:23:40 10° ENE daylight
11 Oct - 23:08:38 10° WSW 23:35:03 79° SSE 23:51:58 10° E visible
12 Oct - 01:43:28 10° W 02:06:18 86° S 02:17:58 10° E visible
12 Oct - 04:18:39 10° WNW 04:33:55 52° SSW 04:41:46 10° SE visible
12 Oct - 19:27:41 10° SSW 19:48:26 37° SE 20:09:10 10° E daylight
12 Oct - 21:53:52 10° SW 22:19:55 69° SSE 22:39:35 10° ENE daylight
13 Oct - 00:26:48 10° W 00:52:15 87° S 01:06:36 10° E visible
13 Oct - 03:02:24 10° W 03:21:53 71° SSW 03:31:34 10° ESE visible
13 Oct - 05:37:28 10° W 05:47:00 24° SW 05:53:02 10° S visible
13 Oct - 18:18:15 10° S 18:34:37 24° SE 18:52:24 10° E daylight
13 Oct - 20:40:29 10° SW 21:04:45 57° SSE 21:26:26 10° ENE daylight
13 Oct - 23:10:44 10° WSW 23:37:23 83° SSE 23:54:43 10° E visible
14 Oct - 01:45:46 10° W 02:08:50 83° SSW 02:20:45 10° ESE visible
14 Oct - 04:21:03 10° WNW 04:36:05 44° SW 04:44:08 10° SSE visible
14 Oct - 17:13:40 10° SE 17:21:28 13° SE 17:29:52 10° ESE daylight
14 Oct - 19:28:34 10° SSW 19:50:00 44° SE 20:12:10 10° ENE daylight
14 Oct - 21:55:46 10° WSW 22:22:01 76° SSE 22:42:15 10° E daylight
